owner,sensor,date,latitude,longitude,vertical_datum,sea_water_practical_salinity,qcFlag 
LUMCON,ioos:station:LUMCON:101:1,2019-12-01T00:00:00Z,29.2533,-90.6633,1.9,10.35,11111222 
LUMCON,ioos:station:LUMCON:101:1,2019-12-01T00:15:00Z,29.2533,-90.6633,1.914,10.38,11111222 
LUMCON,ioos:station:LUMCON:101:1,2019-12-01T00:30:00Z,29.2533,-90.6633,1.93,10.44,11111222 
LUMCON,ioos:station:LUMCON:101:1,2019-12-01T00:45:00Z,29.2533,-90.6633,1.945,10.48,11111222 
LUMCON,ioos:station:LUMCON:101:1,2019-12-01T01:00:00Z,29.2533,-90.6633,1.956,10.33,11111222 
LUMCON,ioos:station:LUMCON:101:1,2019-12-01T01:15:00Z,29.2533,-90.6633,1.97,10.23,11111222 
LUMCON,ioos:station:LUMCON:101:1,2019-12-01T01:30:00Z,29.2533,-90.6633,1.979,10.23,11111222 
LUMCON,ioos:station:LUMCON:101:1,2019-12-01T01:45:00Z,29.2533,-90.6633,1.986,10.37,11111222 
LUMCON,ioos:station:LUMCON:101:1,2019-12-01T02:00:00Z,29.2533,-90.6633,1.99,10.45,11111222 
LUMCON,ioos:station:LUMCON:101:1,2019-12-01T02:15:00Z,29.2533,-90.6633,1.999,10.56,11111222 
LUMCON,ioos:station:LUMCON:101:1,2019-12-01T02:30:00Z,29.2533,-90.6633,2.009,10.46,11111222 
LUMCON,ioos:station:LUMCON:101:1,2019-12-01T02:45:00Z,29.2533,-90.6633,2.019,10.64,11111222 
LUMCON,ioos:station:LUMCON:101:1,2019-12-01T03:00:00Z,29.2533,-90.6633,2.03,10.59,11111222 
LUMCON,ioos:station:LUMCON:101:1,2019-12-01T03:15:00Z,29.2533,-90.6633,2.04,10.56,11111222 
LUMCON,ioos:station:LUMCON:101:1,2019-12-01T03:30:00Z,29.2533,-90.6633,2.05,10.57,11111222 
LUMCON,ioos:station:LUMCON:101:1,2019-12-01T03:45:00Z,29.2533,-90.6633,2.06,10.57,11111222 
LUMCON,ioos:station:LUMCON:101:1,2019-12-01T04:00:00Z,29.2533,-90.6633,2.071,10.54,11111222 
LUMCON,ioos:station:LUMCON:101:1,2019-12-01T04:15:00Z,29.2533,-90.6633,2.081,10.52,11111222 
LUMCON,ioos:station:LUMCON:101:1,2019-12-01T04:30:00Z,29.2533,-90.6633,2.089,10.52,11111222 
LUMCON,ioos:station:LUMCON:101:1,2019-12-01T04:45:00Z,29.2533,-90.6633,2.101,10.47,11111222 
LUMCON,ioos:station:LUMCON:101:1,2019-12-01T05:00:00Z,29.2533,-90.6633,2.106,10.46,11111222 
LUMCON,ioos:station:LUMCON:101:1,2019-12-01T05:15:00Z,29.2533,-90.6633,2.106,10.41,11111222 
LUMCON,ioos:station:LUMCON:101:1,2019-12-01T05:30:00Z,29.2533,-90.6633,2.108,10.4,11111222 
LUMCON,ioos:station:LUMCON:101:1,2019-12-01T05:45:00Z,29.2533,-90.6633,2.112,10.36,11111222 
LUMCON,ioos:station:LUMCON:101:1,2019-12-01T06:00:00Z,29.2533,-90.6633,2.118,10.33,11111222 
LUMCON,ioos:station:LUMCON:101:1,2019-12-01T06:15:00Z,29.2533,-90.6633,2.12,10.35,11111222 
LUMCON,ioos:station:LUMCON:101:1,2019-12-01T06:30:00Z,29.2533,-90.6633,2.126,10.39,11111222 
LUMCON,ioos:station:LUMCON:101:1,2019-12-01T06:45:00Z,29.2533,-90.6633,2.128,10.43,11111222 
LUMCON,ioos:station:LUMCON:101:1,2019-12-01T07:00:00Z,29.2533,-90.6633,2.128,10.44,11111222 
LUMCON,ioos:station:LUMCON:101:1,2019-12-01T07:15:00Z,29.2533,-90.6633,2.125,10.48,11111222 
LUMCON,ioos:station:LUMCON:101:1,2019-12-01T07:30:00Z,29.2533,-90.6633,2.118,10.57,11111222 
LUMCON,ioos:station:LUMCON:101:1,2019-12-01T07:45:00Z,29.2533,-90.6633,2.116,10.59,11111222 
LUMCON,ioos:station:LUMCON:101:1,2019-12-01T08:00:00Z,29.2533,-90.6633,2.111,10.53,11111222 
LUMCON,ioos:station:LUMCON:101:1,2019-12-01T08:15:00Z,29.2533,-90.6633,2.111,10.5,11111222 
LUMCON,ioos:station:LUMCON:101:1,2019-12-01T08:30:00Z,29.2533,-90.6633,2.106,10.5,11111222 
LUMCON,ioos:station:LUMCON:101:1,2019-12-01T08:45:00Z,29.2533,-90.6633,2.119,10.48,11111222 
LUMCON,ioos:station:LUMCON:101:1,2019-12-01T09:00:00Z,29.2533,-90.6633,2.11,10.55,11111222 
LUMCON,ioos:station:LUMCON:101:1,2019-12-01T09:15:00Z,29.2533,-90.6633,2.109,10.49,11111222 
LUMCON,ioos:station:LUMCON:101:1,2019-12-01T09:30:00Z,29.2533,-90.6633,2.097,10.45,11111222 
LUMCON,ioos:station:LUMCON:101:1,2019-12-01T09:45:00Z,29.2533,-90.6633,2.083,10.38,11111222 
LUMCON,ioos:station:LUMCON:101:1,2019-12-01T10:00:00Z,29.2533,-90.6633,2.064,10.37,11111222 
LUMCON,ioos:station:LUMCON:101:1,2019-12-01T10:15:00Z,29.2533,-90.6633,2.054,10.37,11111222 
LUMCON,ioos:station:LUMCON:101:1,2019-12-01T10:30:00Z,29.2533,-90.6633,2.039,10.36,11111222 
LUMCON,ioos:station:LUMCON:101:1,2019-12-01T10:45:00Z,29.2533,-90.6633,2.031,10.37,11111222 
LUMCON,ioos:station:LUMCON:101:1,2019-12-01T11:00:00Z,29.2533,-90.6633,2.031,10.39,11111222 
LUMCON,ioos:station:LUMCON:101:1,2019-12-01T11:15:00Z,29.2533,-90.6633,2.006,10.41,11111222 
LUMCON,ioos:station:LUMCON:101:1,2019-12-01T11:30:00Z,29.2533,-90.6633,1.996,10.43,11111222 
LUMCON,ioos:station:LUMCON:101:1,2019-12-01T11:45:00Z,29.2533,-90.6633,1.975,10.46,11111222 
LUMCON,ioos:station:LUMCON:101:1,2019-12-01T12:00:00Z,29.2533,-90.6633,1.965,10.47,11111222 
LUMCON,ioos:station:LUMCON:101:1,2019-12-01T12:15:00Z,29.2533,-90.6633,1.952,10.47,11111222 
LUMCON,ioos:station:LUMCON:101:1,2019-12-01T12:30:00Z,29.2533,-90.6633,1.939,10.49,11111222 
LUMCON,ioos:station:LUMCON:101:1,2019-12-01T12:45:00Z,29.2533,-90.6633,1.923,10.49,11111222 
LUMCON,ioos:station:LUMCON:101:1,2019-12-01T13:00:00Z,29.2533,-90.6633,1.907,10.51,11111222 
LUMCON,ioos:station:LUMCON:101:1,2019-12-01T13:15:00Z,29.2533,-90.6633,1.899,10.51,11111222 
LUMCON,ioos:station:LUMCON:101:1,2019-12-01T13:30:00Z,29.2533,-90.6633,1.886,10.48,11111222 
LUMCON,ioos:station:LUMCON:101:1,2019-12-01T13:45:00Z,29.2533,-90.6633,1.872,10.5,11111222 
LUMCON,ioos:station:LUMCON:101:1,2019-12-01T14:00:00Z,29.2533,-90.6633,1.857,10.47,11111222 
LUMCON,ioos:station:LUMCON:101:1,2019-12-01T14:15:00Z,29.2533,-90.6633,1.839,10.47,11111222 
LUMCON,ioos:station:LUMCON:101:1,2019-12-01T14:30:00Z,29.2533,-90.6633,1.821,10.45,11111222 
LUMCON,ioos:station:LUMCON:101:1,2019-12-01T14:45:00Z,29.2533,-90.6633,1.808,10.48,11111222 
LUMCON,ioos:station:LUMCON:101:1,2019-12-01T15:00:00Z,29.2533,-90.6633,1.795,10.46,11111222 
LUMCON,ioos:station:LUMCON:101:1,2019-12-01T15:15:00Z,29.2533,-90.6633,1.778,10.46,11111222 
LUMCON,ioos:station:LUMCON:101:1,2019-12-01T15:30:00Z,29.2533,-90.6633,1.761,10.48,11111222 
LUMCON,ioos:station:LUMCON:101:1,2019-12-01T15:45:00Z,29.2533,-90.6633,1.747,10.47,11111222 
LUMCON,ioos:station:LUMCON:101:1,2019-12-01T16:00:00Z,29.2533,-90.6633,1.732,10.47,11111222 
LUMCON,ioos:station:LUMCON:101:1,2019-12-01T16:15:00Z,29.2533,-90.6633,1.723,10.45,11111222 
LUMCON,ioos:station:LUMCON:101:1,2019-12-01T16:30:00Z,29.2533,-90.6633,1.714,10.46,11111222 
LUMCON,ioos:station:LUMCON:101:1,2019-12-01T16:45:00Z,29.2533,-90.6633,1.714,10.46,11111222 
LUMCON,ioos:station:LUMCON:101:1,2019-12-01T17:00:00Z,29.2533,-90.6633,1.711,10.44,11111222 
LUMCON,ioos:station:LUMCON:101:1,2019-12-01T17:15:00Z,29.2533,-90.6633,1.712,10.42,11111222 
LUMCON,ioos:station:LUMCON:101:1,2019-12-01T17:30:00Z,29.2533,-90.6633,1.715,10.4,11111222 
LUMCON,ioos:station:LUMCON:101:1,2019-12-01T17:45:00Z,29.2533,-90.6633,1.708,10.42,11111222 
LUMCON,ioos:station:LUMCON:101:1,2019-12-01T18:00:00Z,29.2533,-90.6633,1.695,10.42,11111222 
LUMCON,ioos:station:LUMCON:101:1,2019-12-01T18:15:00Z,29.2533,-90.6633,1.686,10.42,11111222 
LUMCON,ioos:station:LUMCON:101:1,2019-12-01T18:30:00Z,29.2533,-90.6633,1.672,10.43,11111222 
LUMCON,ioos:station:LUMCON:101:1,2019-12-01T18:45:00Z,29.2533,-90.6633,1.664,10.39,11111222 
LUMCON,ioos:station:LUMCON:101:1,2019-12-01T19:00:00Z,29.2533,-90.6633,1.651,10.4,11111222 
LUMCON,ioos:station:LUMCON:101:1,2019-12-01T19:15:00Z,29.2533,-90.6633,1.643,10.42,11111222 
LUMCON,ioos:station:LUMCON:101:1,2019-12-01T19:30:00Z,29.2533,-90.6633,1.635,10.36,11111222 
LUMCON,ioos:station:LUMCON:101:1,2019-12-01T19:45:00Z,29.2533,-90.6633,1.631,10.4,11111222 
LUMCON,ioos:station:LUMCON:101:1,2019-12-01T20:00:00Z,29.2533,-90.6633,1.625,10.38,11111222 
LUMCON,ioos:station:LUMCON:101:1,2019-12-01T20:15:00Z,29.2533,-90.6633,1.621,10.37,11111222 
LUMCON,ioos:station:LUMCON:101:1,2019-12-01T20:30:00Z,29.2533,-90.6633,1.624,10.37,11111222 
LUMCON,ioos:station:LUMCON:101:1,2019-12-01T20:45:00Z,29.2533,-90.6633,1.622,10.34,11111222 
LUMCON,ioos:station:LUMCON:101:1,2019-12-01T21:00:00Z,29.2533,-90.6633,1.621,10.36,11111222 
LUMCON,ioos:station:LUMCON:101:1,2019-12-01T21:15:00Z,29.2533,-90.6633,1.623,10.3,11111222 
LUMCON,ioos:station:LUMCON:101:1,2019-12-01T21:30:00Z,29.2533,-90.6633,1.634,10.3,11111222 
LUMCON,ioos:station:LUMCON:101:1,2019-12-01T21:45:00Z,29.2533,-90.6633,1.637,10.27,11111222 
LUMCON,ioos:station:LUMCON:101:1,2019-12-01T22:00:00Z,29.2533,-90.6633,1.641,10.25,11111222 
LUMCON,ioos:station:LUMCON:101:1,2019-12-01T22:15:00Z,29.2533,-90.6633,1.645,10.26,11111222 
LUMCON,ioos:station:LUMCON:101:1,2019-12-01T22:30:00Z,29.2533,-90.6633,1.64,10.24,11111222 
LUMCON,ioos:station:LUMCON:101:1,2019-12-01T22:45:00Z,29.2533,-90.6633,1.662,10.23,11111222 
LUMCON,ioos:station:LUMCON:101:1,2019-12-01T23:00:00Z,29.2533,-90.6633,1.677,10.26,11111222 
LUMCON,ioos:station:LUMCON:101:1,2019-12-01T23:15:00Z,29.2533,-90.6633,1.696,10.28,11111222 
LUMCON,ioos:station:LUMCON:101:1,2019-12-01T23:30:00Z,29.2533,-90.6633,1.703,10.2,11111222 
LUMCON,ioos:station:LUMCON:101:1,2019-12-01T23:45:00Z,29.2533,-90.6633,1.706,9.87,11111222 
LUMCON,ioos:station:LUMCON:101:1,2019-12-02T00:00:00Z,29.2533,-90.6633,1.705,9.87,11111222 
LUMCON,ioos:station:LUMCON:101:1,2019-12-02T00:15:00Z,29.2533,-90.6633,1.704,9.91,11111222 
LUMCON,ioos:station:LUMCON:101:1,2019-12-02T00:30:00Z,29.2533,-90.6633,1.709,9.92,11111222 
LUMCON,ioos:station:LUMCON:101:1,2019-12-02T00:45:00Z,29.2533,-90.6633,1.719,9.65,11111222 
LUMCON,ioos:station:LUMCON:101:1,2019-12-02T01:00:00Z,29.2533,-90.6633,1.723,9.84,11111222 
LUMCON,ioos:station:LUMCON:101:1,2019-12-02T01:15:00Z,29.2533,-90.6633,1.734,9.89,11111222 
LUMCON,ioos:station:LUMCON:101:1,2019-12-02T01:30:00Z,29.2533,-90.6633,1.741,9.84,11111222 
LUMCON,ioos:station:LUMCON:101:1,2019-12-02T01:45:00Z,29.2533,-90.6633,1.74,9.79,11111222 
LUMCON,ioos:station:LUMCON:101:1,2019-12-02T02:00:00Z,29.2533,-90.6633,1.743,9.72,11111222 
LUMCON,ioos:station:LUMCON:101:1,2019-12-02T02:15:00Z,29.2533,-90.6633,1.749,9.09,11111222 
LUMCON,ioos:station:LUMCON:101:1,2019-12-02T02:30:00Z,29.2533,-90.6633,1.751,8.71,11111222 
LUMCON,ioos:station:LUMCON:101:1,2019-12-02T02:45:00Z,29.2533,-90.6633,1.756,8.79,11111222 
LUMCON,ioos:station:LUMCON:101:1,2019-12-02T03:00:00Z,29.2533,-90.6633,1.758,8.36,11111222 
LUMCON,ioos:station:LUMCON:101:1,2019-12-02T03:15:00Z,29.2533,-90.6633,1.754,8.46,11111222 
LUMCON,ioos:station:LUMCON:101:1,2019-12-02T03:30:00Z,29.2533,-90.6633,1.751,8.73,11111222 
LUMCON,ioos:station:LUMCON:101:1,2019-12-02T03:45:00Z,29.2533,-90.6633,1.745,9.11,11111222 
LUMCON,ioos:station:LUMCON:101:1,2019-12-02T04:00:00Z,29.2533,-90.6633,1.732,9.57,11111222 
LUMCON,ioos:station:LUMCON:101:1,2019-12-02T04:15:00Z,29.2533,-90.6633,1.726,9.95,11111222 
LUMCON,ioos:station:LUMCON:101:1,2019-12-02T04:30:00Z,29.2533,-90.6633,1.723,9.93,11111222 
LUMCON,ioos:station:LUMCON:101:1,2019-12-02T04:45:00Z,29.2533,-90.6633,1.72,9.87,11111222 
LUMCON,ioos:station:LUMCON:101:1,2019-12-02T05:00:00Z,29.2533,-90.6633,1.717,9.89,11111222 
LUMCON,ioos:station:LUMCON:101:1,2019-12-02T05:15:00Z,29.2533,-90.6633,1.712,9.95,11111222 
LUMCON,ioos:station:LUMCON:101:1,2019-12-02T05:30:00Z,29.2533,-90.6633,1.705,10.05,11111222 
LUMCON,ioos:station:LUMCON:101:1,2019-12-02T05:45:00Z,29.2533,-90.6633,1.703,10.01,11111222 
LUMCON,ioos:station:LUMCON:101:1,2019-12-02T06:00:00Z,29.2533,-90.6633,1.699,9.8,11111222 
LUMCON,ioos:station:LUMCON:101:1,2019-12-02T06:15:00Z,29.2533,-90.6633,1.688,9.57,11111222 
LUMCON,ioos:station:LUMCON:101:1,2019-12-02T06:30:00Z,29.2533,-90.6633,1.683,9.5,11111222 
LUMCON,ioos:station:LUMCON:101:1,2019-12-02T06:45:00Z,29.2533,-90.6633,1.674,9.59,11111222 
LUMCON,ioos:station:LUMCON:101:1,2019-12-02T07:00:00Z,29.2533,-90.6633,1.667,9.51,11111222 
LUMCON,ioos:station:LUMCON:101:1,2019-12-02T07:15:00Z,29.2533,-90.6633,1.659,9.31,11111222 
LUMCON,ioos:station:LUMCON:101:1,2019-12-02T07:30:00Z,29.2533,-90.6633,1.647,9.22,11111222 
LUMCON,ioos:station:LUMCON:101:1,2019-12-02T07:45:00Z,29.2533,-90.6633,1.636,9.14,11111222 
LUMCON,ioos:station:LUMCON:101:1,2019-12-02T08:00:00Z,29.2533,-90.6633,1.628,9.11,11111222 
LUMCON,ioos:station:LUMCON:101:1,2019-12-02T08:15:00Z,29.2533,-90.6633,1.617,9.21,11111222 
LUMCON,ioos:station:LUMCON:101:1,2019-12-02T08:30:00Z,29.2533,-90.6633,1.615,9.16,11111222 
LUMCON,ioos:station:LUMCON:101:1,2019-12-02T08:45:00Z,29.2533,-90.6633,1.616,9.13,11111222 
LUMCON,ioos:station:LUMCON:101:1,2019-12-02T09:00:00Z,29.2533,-90.6633,1.622,9.29,11111222 
LUMCON,ioos:station:LUMCON:101:1,2019-12-02T09:15:00Z,29.2533,-90.6633,1.631,9.23,11111222 
LUMCON,ioos:station:LUMCON:101:1,2019-12-02T09:30:00Z,29.2533,-90.6633,1.631,9.23,11111222 
LUMCON,ioos:station:LUMCON:101:1,2019-12-02T09:45:00Z,29.2533,-90.6633,1.63,9.32,11111222 
LUMCON,ioos:station:LUMCON:101:1,2019-12-02T10:00:00Z,29.2533,-90.6633,1.623,9.37,11111222 
LUMCON,ioos:station:LUMCON:101:1,2019-12-02T10:15:00Z,29.2533,-90.6633,1.608,9.39,11111222 
LUMCON,ioos:station:LUMCON:101:1,2019-12-02T10:30:00Z,29.2533,-90.6633,1.597,9.5,11111222 
LUMCON,ioos:station:LUMCON:101:1,2019-12-02T10:45:00Z,29.2533,-90.6633,1.586,9.62,11111222 
LUMCON,ioos:station:LUMCON:101:1,2019-12-02T11:00:00Z,29.2533,-90.6633,1.574,9.74,11111222 
LUMCON,ioos:station:LUMCON:101:1,2019-12-02T11:15:00Z,29.2533,-90.6633,1.566,9.71,11111222 
LUMCON,ioos:station:LUMCON:101:1,2019-12-02T11:30:00Z,29.2533,-90.6633,1.556,9.7,11111222 
LUMCON,ioos:station:LUMCON:101:1,2019-12-02T11:45:00Z,29.2533,-90.6633,1.546,9.61,11111222 
LUMCON,ioos:station:LUMCON:101:1,2019-12-02T12:00:00Z,29.2533,-90.6633,1.538,9.6,11111222 
LUMCON,ioos:station:LUMCON:101:1,2019-12-02T12:15:00Z,29.2533,-90.6633,1.534,9.68,11111222 
LUMCON,ioos:station:LUMCON:101:1,2019-12-02T12:30:00Z,29.2533,-90.6633,1.525,9.69,11111222 
LUMCON,ioos:station:LUMCON:101:1,2019-12-02T12:45:00Z,29.2533,-90.6633,1.52,9.78,11111222 
LUMCON,ioos:station:LUMCON:101:1,2019-12-02T13:00:00Z,29.2533,-90.6633,1.51,9.88,11111222 
LUMCON,ioos:station:LUMCON:101:1,2019-12-02T13:15:00Z,29.2533,-90.6633,1.504,9.9,11111222 
LUMCON,ioos:station:LUMCON:101:1,2019-12-02T13:30:00Z,29.2533,-90.6633,1.496,9.95,11111222 
LUMCON,ioos:station:LUMCON:101:1,2019-12-02T13:45:00Z,29.2533,-90.6633,1.485,9.95,11111222 
LUMCON,ioos:station:LUMCON:101:1,2019-12-02T14:00:00Z,29.2533,-90.6633,1.474,9.95,11111222 
LUMCON,ioos:station:LUMCON:101:1,2019-12-02T14:15:00Z,29.2533,-90.6633,1.461,10.04,11111222 
LUMCON,ioos:station:LUMCON:101:1,2019-12-02T14:30:00Z,29.2533,-90.6633,1.445,9.98,11111222 
LUMCON,ioos:station:LUMCON:101:1,2019-12-02T14:45:00Z,29.2533,-90.6633,1.433,9.99,11111222 
LUMCON,ioos:station:LUMCON:101:1,2019-12-02T15:00:00Z,29.2533,-90.6633,1.427,9.97,11111222 
LUMCON,ioos:station:LUMCON:101:1,2019-12-02T15:15:00Z,29.2533,-90.6633,1.421,9.99,11111222 
LUMCON,ioos:station:LUMCON:101:1,2019-12-02T15:30:00Z,29.2533,-90.6633,1.413,10.0,11111222 
LUMCON,ioos:station:LUMCON:101:1,2019-12-02T15:45:00Z,29.2533,-90.6633,1.407,9.96,11111222 
LUMCON,ioos:station:LUMCON:101:1,2019-12-02T16:00:00Z,29.2533,-90.6633,1.402,9.99,11111222 
LUMCON,ioos:station:LUMCON:101:1,2019-12-02T16:15:00Z,29.2533,-90.6633,1.398,9.96,11111222 
LUMCON,ioos:station:LUMCON:101:1,2019-12-02T16:30:00Z,29.2533,-90.6633,1.394,9.99,11111222 
LUMCON,ioos:station:LUMCON:101:1,2019-12-02T16:45:00Z,29.2533,-90.6633,1.388,10.03,11111222 
LUMCON,ioos:station:LUMCON:101:1,2019-12-02T17:00:00Z,29.2533,-90.6633,1.386,10.01,11111222 
LUMCON,ioos:station:LUMCON:101:1,2019-12-02T17:15:00Z,29.2533,-90.6633,1.385,9.98,11111222 
LUMCON,ioos:station:LUMCON:101:1,2019-12-02T17:30:00Z,29.2533,-90.6633,1.383,10.0,11111222 
LUMCON,ioos:station:LUMCON:101:1,2019-12-02T17:45:00Z,29.2533,-90.6633,1.379,9.99,11111222 
LUMCON,ioos:station:LUMCON:101:1,2019-12-02T18:00:00Z,29.2533,-90.6633,1.385,9.97,11111222 
LUMCON,ioos:station:LUMCON:101:1,2019-12-02T18:15:00Z,29.2533,-90.6633,1.396,9.94,11111222 
LUMCON,ioos:station:LUMCON:101:1,2019-12-02T18:30:00Z,29.2533,-90.6633,1.402,9.96,11111222 
LUMCON,ioos:station:LUMCON:101:1,2019-12-02T18:45:00Z,29.2533,-90.6633,1.411,9.92,11111222 
LUMCON,ioos:station:LUMCON:101:1,2019-12-02T19:00:00Z,29.2533,-90.6633,1.416,9.9,11111222 
LUMCON,ioos:station:LUMCON:101:1,2019-12-02T19:15:00Z,29.2533,-90.6633,1.423,9.88,11111222 
LUMCON,ioos:station:LUMCON:101:1,2019-12-02T19:30:00Z,29.2533,-90.6633,1.429,9.88,11111222 
LUMCON,ioos:station:LUMCON:101:1,2019-12-02T19:45:00Z,29.2533,-90.6633,1.442,9.89,11111222 
LUMCON,ioos:station:LUMCON:101:1,2019-12-02T20:00:00Z,29.2533,-90.6633,1.445,9.9,11111222 
LUMCON,ioos:station:LUMCON:101:1,2019-12-02T20:15:00Z,29.2533,-90.6633,1.455,9.89,11111222 
LUMCON,ioos:station:LUMCON:101:1,2019-12-02T20:30:00Z,29.2533,-90.6633,1.466,9.22,11111222 
LUMCON,ioos:station:LUMCON:101:1,2019-12-02T20:45:00Z,29.2533,-90.6633,1.475,9.3,11111222 
LUMCON,ioos:station:LUMCON:101:1,2019-12-02T21:00:00Z,29.2533,-90.6633,1.486,9.11,11111222 
LUMCON,ioos:station:LUMCON:101:1,2019-12-02T21:15:00Z,29.2533,-90.6633,1.5,8.54,11111222 
LUMCON,ioos:station:LUMCON:101:1,2019-12-02T21:30:00Z,29.2533,-90.6633,1.509,7.97,11111222 
LUMCON,ioos:station:LUMCON:101:1,2019-12-02T21:45:00Z,29.2533,-90.6633,1.519,7.68,11111222 
LUMCON,ioos:station:LUMCON:101:1,2019-12-02T22:00:00Z,29.2533,-90.6633,1.533,7.21,11111222 
LUMCON,ioos:station:LUMCON:101:1,2019-12-02T22:15:00Z,29.2533,-90.6633,1.543,6.78,11111222 
LUMCON,ioos:station:LUMCON:101:1,2019-12-02T22:30:00Z,29.2533,-90.6633,1.557,6.62,11111222 
LUMCON,ioos:station:LUMCON:101:1,2019-12-02T22:45:00Z,29.2533,-90.6633,1.569,5.86,11111222 
LUMCON,ioos:station:LUMCON:101:1,2019-12-02T23:00:00Z,29.2533,-90.6633,1.576,5.85,11111222 
LUMCON,ioos:station:LUMCON:101:1,2019-12-02T23:15:00Z,29.2533,-90.6633,1.586,5.98,11111222 
LUMCON,ioos:station:LUMCON:101:1,2019-12-02T23:30:00Z,29.2533,-90.6633,1.595,5.5,11111222 
LUMCON,ioos:station:LUMCON:101:1,2019-12-02T23:45:00Z,29.2533,-90.6633,1.608,4.82,11111222 
LUMCON,ioos:station:LUMCON:101:1,2019-12-03T00:00:00Z,29.2533,-90.6633,1.617,5.28,11111222 
LUMCON,ioos:station:LUMCON:101:1,2019-12-03T00:15:00Z,29.2533,-90.6633,1.628,4.8,11111222 
LUMCON,ioos:station:LUMCON:101:1,2019-12-03T00:30:00Z,29.2533,-90.6633,1.639,4.74,11111222 
LUMCON,ioos:station:LUMCON:101:1,2019-12-03T00:45:00Z,29.2533,-90.6633,1.647,4.82,11111222 
LUMCON,ioos:station:LUMCON:101:1,2019-12-03T01:00:00Z,29.2533,-90.6633,1.658,4.83,11111222 
LUMCON,ioos:station:LUMCON:101:1,2019-12-03T01:15:00Z,29.2533,-90.6633,1.665,4.17,11111222 
LUMCON,ioos:station:LUMCON:101:1,2019-12-03T01:30:00Z,29.2533,-90.6633,1.675,4.0,11111222 
LUMCON,ioos:station:LUMCON:101:1,2019-12-03T01:45:00Z,29.2533,-90.6633,1.681,4.34,11111222 
LUMCON,ioos:station:LUMCON:101:1,2019-12-03T02:00:00Z,29.2533,-90.6633,1.687,4.66,11111222 
LUMCON,ioos:station:LUMCON:101:1,2019-12-03T02:15:00Z,29.2533,-90.6633,1.694,4.73,11111222 
LUMCON,ioos:station:LUMCON:101:1,2019-12-03T02:30:00Z,29.2533,-90.6633,1.7,4.75,11111222 
LUMCON,ioos:station:LUMCON:101:1,2019-12-03T02:45:00Z,29.2533,-90.6633,1.71,4.38,11111222 
LUMCON,ioos:station:LUMCON:101:1,2019-12-03T03:00:00Z,29.2533,-90.6633,1.719,4.65,11111222 
LUMCON,ioos:station:LUMCON:101:1,2019-12-03T03:15:00Z,29.2533,-90.6633,1.726,4.75,11111222 
LUMCON,ioos:station:LUMCON:101:1,2019-12-03T03:30:00Z,29.2533,-90.6633,1.731,4.67,11111222 
LUMCON,ioos:station:LUMCON:101:1,2019-12-03T03:45:00Z,29.2533,-90.6633,1.731,4.86,11111222 
LUMCON,ioos:station:LUMCON:101:1,2019-12-03T04:00:00Z,29.2533,-90.6633,1.733,4.71,11111222 
LUMCON,ioos:station:LUMCON:101:1,2019-12-03T04:15:00Z,29.2533,-90.6633,1.744,4.64,11111222 
LUMCON,ioos:station:LUMCON:101:1,2019-12-03T04:30:00Z,29.2533,-90.6633,1.756,4.44,11111222 
LUMCON,ioos:station:LUMCON:101:1,2019-12-03T04:45:00Z,29.2533,-90.6633,1.764,4.16,11111222 
LUMCON,ioos:station:LUMCON:101:1,2019-12-03T05:00:00Z,29.2533,-90.6633,1.771,3.92,11111222 
LUMCON,ioos:station:LUMCON:101:1,2019-12-03T05:15:00Z,29.2533,-90.6633,1.775,3.95,11111222 
LUMCON,ioos:station:LUMCON:101:1,2019-12-03T05:30:00Z,29.2533,-90.6633,1.775,4.06,11111222 
LUMCON,ioos:station:LUMCON:101:1,2019-12-03T05:45:00Z,29.2533,-90.6633,1.777,4.14,11111222 
LUMCON,ioos:station:LUMCON:101:1,2019-12-03T06:00:00Z,29.2533,-90.6633,1.785,4.02,11111222 
LUMCON,ioos:station:LUMCON:101:1,2019-12-03T06:15:00Z,29.2533,-90.6633,1.789,4.18,11111222 
LUMCON,ioos:station:LUMCON:101:1,2019-12-03T06:30:00Z,29.2533,-90.6633,1.79,4.46,11111222 
LUMCON,ioos:station:LUMCON:101:1,2019-12-03T06:45:00Z,29.2533,-90.6633,1.79,4.9,11111222 
LUMCON,ioos:station:LUMCON:101:1,2019-12-03T07:00:00Z,29.2533,-90.6633,1.791,5.11,11111222 
LUMCON,ioos:station:LUMCON:101:1,2019-12-03T07:15:00Z,29.2533,-90.6633,1.788,4.98,11111222 
LUMCON,ioos:station:LUMCON:101:1,2019-12-03T07:30:00Z,29.2533,-90.6633,1.786,4.98,11111222 
LUMCON,ioos:station:LUMCON:101:1,2019-12-03T07:45:00Z,29.2533,-90.6633,1.796,5.01,11111222 
LUMCON,ioos:station:LUMCON:101:1,2019-12-03T08:00:00Z,29.2533,-90.6633,1.784,4.87,11111222 
LUMCON,ioos:station:LUMCON:101:1,2019-12-03T08:15:00Z,29.2533,-90.6633,1.778,4.85,11111222 
LUMCON,ioos:station:LUMCON:101:1,2019-12-03T08:30:00Z,29.2533,-90.6633,1.776,4.33,11111222 
LUMCON,ioos:station:LUMCON:101:1,2019-12-03T08:45:00Z,29.2533,-90.6633,1.776,4.26,11111222 
LUMCON,ioos:station:LUMCON:101:1,2019-12-03T09:00:00Z,29.2533,-90.6633,1.778,4.21,11111222 
LUMCON,ioos:station:LUMCON:101:1,2019-12-03T09:15:00Z,29.2533,-90.6633,1.778,4.26,11111222 
LUMCON,ioos:station:LUMCON:101:1,2019-12-03T09:30:00Z,29.2533,-90.6633,1.775,4.32,11111222 
LUMCON,ioos:station:LUMCON:101:1,2019-12-03T09:45:00Z,29.2533,-90.6633,1.766,4.37,11111222 
LUMCON,ioos:station:LUMCON:101:1,2019-12-03T10:00:00Z,29.2533,-90.6633,1.761,4.39,11111222 
LUMCON,ioos:station:LUMCON:101:1,2019-12-03T10:15:00Z,29.2533,-90.6633,1.757,4.37,11111222 
LUMCON,ioos:station:LUMCON:101:1,2019-12-03T10:30:00Z,29.2533,-90.6633,1.761,4.36,11111222 
LUMCON,ioos:station:LUMCON:101:1,2019-12-03T10:45:00Z,29.2533,-90.6633,1.763,4.34,11111222 
LUMCON,ioos:station:LUMCON:101:1,2019-12-03T11:00:00Z,29.2533,-90.6633,1.761,4.33,11111222 
LUMCON,ioos:station:LUMCON:101:1,2019-12-03T11:15:00Z,29.2533,-90.6633,1.761,4.33,11111222 
LUMCON,ioos:station:LUMCON:101:1,2019-12-03T11:30:00Z,29.2533,-90.6633,1.753,4.37,11111222 
LUMCON,ioos:station:LUMCON:101:1,2019-12-03T11:45:00Z,29.2533,-90.6633,1.739,4.37,11111222 
LUMCON,ioos:station:LUMCON:101:1,2019-12-03T12:00:00Z,29.2533,-90.6633,1.745,4.35,11111222 
LUMCON,ioos:station:LUMCON:101:1,2019-12-03T12:15:00Z,29.2533,-90.6633,1.734,4.33,11111222 
LUMCON,ioos:station:LUMCON:101:1,2019-12-03T12:30:00Z,29.2533,-90.6633,1.732,4.28,11111222 
LUMCON,ioos:station:LUMCON:101:1,2019-12-03T12:45:00Z,29.2533,-90.6633,1.733,4.3,11111222 
LUMCON,ioos:station:LUMCON:101:1,2019-12-03T13:00:00Z,29.2533,-90.6633,1.727,4.29,11111222 
LUMCON,ioos:station:LUMCON:101:1,2019-12-03T13:15:00Z,29.2533,-90.6633,1.722,4.27,11111222 
LUMCON,ioos:station:LUMCON:101:1,2019-12-03T13:30:00Z,29.2533,-90.6633,1.717,4.28,11111222 
LUMCON,ioos:station:LUMCON:101:1,2019-12-03T13:45:00Z,29.2533,-90.6633,1.708,4.25,11111222 
LUMCON,ioos:station:LUMCON:101:1,2019-12-03T14:00:00Z,29.2533,-90.6633,1.7,4.26,11111222 
LUMCON,ioos:station:LUMCON:101:1,2019-12-03T14:15:00Z,29.2533,-90.6633,1.699,4.26,11111222 
LUMCON,ioos:station:LUMCON:101:1,2019-12-03T14:30:00Z,29.2533,-90.6633,1.696,4.26,11111222 
LUMCON,ioos:station:LUMCON:101:1,2019-12-03T14:45:00Z,29.2533,-90.6633,1.691,4.23,11111222 
LUMCON,ioos:station:LUMCON:101:1,2019-12-03T15:00:00Z,29.2533,-90.6633,1.681,4.21,11111222 
LUMCON,ioos:station:LUMCON:101:1,2019-12-03T15:15:00Z,29.2533,-90.6633,1.668,4.21,11111222 
LUMCON,ioos:station:LUMCON:101:1,2019-12-03T15:30:00Z,29.2533,-90.6633,1.661,4.23,11111222 
LUMCON,ioos:station:LUMCON:101:1,2019-12-03T15:45:00Z,29.2533,-90.6633,1.658,4.24,11111222 
LUMCON,ioos:station:LUMCON:101:1,2019-12-03T16:00:00Z,29.2533,-90.6633,1.65,4.24,11111222 
LUMCON,ioos:station:LUMCON:101:1,2019-12-03T16:15:00Z,29.2533,-90.6633,1.646,4.24,11111222 
LUMCON,ioos:station:LUMCON:101:1,2019-12-03T16:30:00Z,29.2533,-90.6633,1.634,4.26,11111222 